Chancay, Peru
Current Conditions -  °F | °C
As of 10:00 AM on Thursday 30 Oct 2014 (Local Time) from SPIM Reporting Station
Overcast Overcast  
Wind Chill: 64°   Ceiling: 1700
Heat Index: 64°   Visibility: 6mi
Dew Point: 59°   Wind: 8mph
Humidity: 83%   Direction: 310°NW
Pressure: 29.94"   Gusts: NA
Location:  11.56°S, 77.27°W
Report Text: SPIM 301500Z 31007KT 9999 OVC017 18/15 Q1014 NOSIG RMK PP000
Loading
Personal Weather Stations






























Interactive Weather Map
Tropical Storm Tracking
New forecast layout! Learn more

10-Day Weather Forecast

Advertisements
Track Severe Weather on mobile